FLOCK JA

Last updated on Tue May 24 2016 09:36:31 GMT+0000 (Coordinated Universal Time)

1 41480U 98067JA 16145.11449713 .00011781 00000-0 17590-3 0 9997 2 41480 51.6419 178.0772 0003169 335.8640 127.8809 15.55510562 1051

Satellite not in orbit